IRIDIUM 113

Last updated on Sun Jun 21 2026 00:03:13 GMT+0000 (Coordinated Universal Time)

1 42803U 17039A 26171.44971282 .00000038 00000+0 66597-5 0 9999 2 42803 86.3973 320.8144 0002270 89.2789 270.8667 14.34217806471656
UTC large
Height (km)
Speed (km/s)
/
Latitude / Longitude
Inclination (degrees)
Orbital Period (minutes)
Azimuth
Elevation
Range (km)
Doppler Factor

Next 0 passes for location: London (51.5072 / 0.1276)

No passes found over London.
IRIDIUM 113